Location: Newark
(31.5350°N, 35.0986°E)
Time: 10:36:34
(UTC+00:00)

Vanguard 1 - Pass Details

Date: 23 September 2019
Orbit: 653 x 3830 km, 34.3° (Epoch: 14 October)

Event Time Altitude Azimuth Distance (km) Brightness Sun altitude
Rises 20:40:04 0° 217° (SW) 6,541 - -56.4°
Reaches altitude 10° 20:44:05 10° 212° (SSW) 5,870 - -56.7°
Maximum altitude 21:03:15 52° 142° (SE) 4,330 - -58.0°
Exits shadow 21:16:03 30° 87° (E) 5,323 13.5 -58.5°
Drops below altitude 10° 21:24:52 10° 74° (ENE) 6,577 14.3 -58.6°
Sets 21:29:37 0° 70° (ENE) 7,344 14.7 -58.7°
